Dewpoint
56 48 42 34 14 8 3 1 2 8 14 16 18 25 25 33 34 45 61 62 60 62 67 68 70 70 71 70 70 69 69 69 69 68 68 66 66 64 62 61 61 61 61 60 60 62 62 62 62
43 42 38 25 16 1 -3 1 6 10 20 23 22 28 30 36 51 57 60 62 60 61 65 67 70 69 70 70 70 70 69 69 69 69 67 67 67 63 62 61 60 61 61 61 61 66 65 64 65
44 37 26 21 3 -1 -1 4 3 13 28 27 22 28 28 42 52 55 60 61 60 61 63 67 70 68 68 70 70 70 69 69 69 69 68 68 67 64 62 61 60 61 62 62 63 64 63 65 63
37 34 31 19 4 0 5 14 6 20 29 31 26 28 34 48 53 56 61 61 60 61 61 69 70 69 69 69 70 69 69 69 69 68 68 68 67 64 62 61 61 62 63 62 62 63 63 63 62
38 28 16 13 11 5 6 14 16 20 26 28 28 25 32 48 57 59 60 61 60 61 63 69 70 69 69 68 69 69 68 68 69 68 68 68 66 64 62 60 61 61 62 62 61 63 62 63 62
29 26 14 12 8 9 11 12 19 18 23 27 26 22 31 49 56 59 59 60 61 61 64 67 69 69 69 68 67 68 67 68 68 68 68 67 66 65 63 60 60 60 61 61 63 62 61 63 62
26 19 13 6 5 8 12 16 18 19 22 23 25 21 25 48 53 59 59 61 62 62 62 67 67 68 69 68 68 67 67 68 67 68 67 67 66 64 63 61 60 60 60 62 61 61 62 63 61
28 25 15 13 9 9 11 17 18 21 22 25 25 21 22 35 56 58 59 60 62 63 62 63 67 67 66 66 67 67 66 67 67 67 67 65 64 62 61 60 60 60 60 60 59 64 64 63 62
36 24 15 12 9 10 19 16 24 22 21 25 25 26 32 47 56 56 54 58 61 63 63 61 64 66 66 66 65 66 66 67 67 66 64 61 60 59 59 58 60 58 59 60 61 64 63 63 64
31 20 16 14 13 16 21 19 23 24 24 26 25 28 38 51 54 52 51 53 57 63 63 62 64 63 66 65 66 63 64 64 63 64 62 60 60 58 56 59 58 58 58 59 62 64 62 60 58
31 20 19 19 22 23 22 24 24 22 20 24 26 28 35 48 47 47 47 48 51 56 61 63 63 62 63 64 65 65 65 65 63 64 61 60 60 57 56 58 56 57 56 57 59 62 56 54 56
28 25 23 22 24 27 24 25 25 26 23 28 27 29 31 41 43 45 46 46 47 50 58 62 63 63 63 63 64 64 66 65 64 64 61 61 60 58 55 55 55 55 56 54 56 56 54 52 54
29 26 26 26 33 28 29 29 26 25 27 32 33 31 32 35 40 43 43 47 46 49 54 58 63 64 64 64 63 62 64 65 65 65 62 61 60 59 55 53 53 54 54 52 57 53 53 52 52
28 29 24 28 27 30 29 27 26 28 29 30 33 34 34 34 34 37 42 44 47 46 48 50 54 58 61 63 64 62 63 64 65 66 64 62 61 59 56 54 53 52 52 54 58 53 52 51 54
26 26 26 24 30 29 31 28 24 27 24 26 30 33 34 35 36 36 37 40 45 48 48 48 51 55 56 60 65 66 65 63 64 65 64 62 61 60 57 55 54 53 52 54 56 52 52 52 54
27 24 15 20 27 29 29 10 14 24 26 25 26 28 30 33 35 36 38 39 41 44 45 45 45 49 54 57 63 64 65 66 65 64 64 63 62 60 58 56 54 54 52 54 55 52 51 52 53
25 10 12 11 24 25 29 14 12 28 24 23 25 26 28 30 32 33 35 38 40 41 43 45 47 48 53 55 60 62 64 65 65 65 64 63 62 61 58 57 56 54 53 53 54 53 52 53 54
13 17 12 12 22 25 27 24 26 29 27 24 26 26 26 27 28 29 32 39 42 42 44 45 47 49 52 56 59 60 61 64 65 65 64 63 62 61 60 58 57 56 54 53 53 53 54 54 54
13 13 17 12 20 24 21 23 22 28 27 25 24 23 26 26 26 27 28 32 35 42 43 45 46 49 53 55 57 58 59 61 63 63 63 63 62 60 59 58 57 57 56 53 54 55 56 56 55
24 15 11 15 20 23 19 20 20 22 25 27 27 24 23 25 26 29 31 31 35 38 41 44 46 48 52 56 56 55 57 59 61 62 62 62 61 60 59 58 58 58 57 55 55 56 55 55 56
25 22 15 11 24 24 20 17 18 21 25 24 23 23 24 26 29 32 37 43 36 37 40 41 45 47 50 54 55 55 56 58 59 60 60 60 60 60 58 57 57 57 57 56 57 56 55 54 56
22 24 24 17 21 21 22 8 11 21 22 20 19 21 23 27 32 37 39 42 48 39 39 42 43 45 49 55 55 54 56 55 56 57 59 59 59 59 58 57 57 57 57 55 57 57 56 55 54
22 23 24 23 17 20 20 17 14 20 18 16 16 18 19 22 27 28 31 38 43 50 49 47 45 46 49 55 55 55 54 54 54 57 57 58 58 59 58 57 57 56 56 56 56 56 56 55 54
27 25 24 23 23 22 19 17 13 17 16 13 15 17 17 19 22 22 26 31 37 43 49 50 48 48 51 54 53 54 54 52 53 55 55 56 56 57 58 58 57 57 56 55 55 56 56 56 55
30 29 22 22 22 18 21 17 13 9 10 12 13 13 14 15 18 19 24 26 32 37 44 49 49 49 51 52 52 54 54 53 53 53 54 55 55 55 56 57 57 57 56 56 55 55 55 55 56
32 27 18 13 16 15 17 17 12 9 11 10 10 10 11 11 13 14 19 23 26 32 38 45 50 48 50 52 53 52 53 54 54 53 53 54 54 54 55 55 56 56 56 55 55 54 54 54 55
30 27 21 12 11 11 21 10 7 11 11 10 8 7 8 9 9 11 14 21 21 26 33 38 45 50 50 51 51 52 53 53 53 53 53 53 52 54 54 54 55 55 56 55 54 53 53 52 53
24 31 24 22 14 12 17 8 7 10 10 13 11 7 6 7 9 10 12 16 20 22 27 33 39 45 50 52 52 52 52 53 53 54 52 52 53 53 54 54 55 55 55 55 54 53 53 52 52
13 14 21 26 20 9 10 10 18 16 16 13 11 10 8 8 8 10 11 13 17 18 21 26 33 38 43 47 51 55 54 54 54 54 54 54 54 54 54 54 54 54 55 55 54 53 53 53 52
15 12 15 15 19 17 16 7 16 16 18 17 13 11 10 10 8 9 10 12 12 14 15 18 23 31 35 42 46 54 54 54 53 52 52 52 52 52 53 54 54 54 54 54 53 53 53 53 52
Wind_Speed
7 9 8 7 7 10 18 16 7 6 4 11 7 6 8 4 3 4 13 9 18 21 23 21 19 18 16 15 15 16 16 15 16 16 17 16 17 16 15 14 14 14 12 13 15 12 16 14 15
7 8 7 6 10 17 17 19 11 9 3 9 9 5 4 6 9 14 12 10 19 20 23 21 20 19 16 15 16 16 15 15 15 17 15 15 16 16 15 14 11 12 13 15 14 16 16 14 17
9 10 6 7 12 21 15 5 12 10 9 11 9 4 5 10 13 10 17 14 20 18 22 23 20 19 17 15 16 17 17 15 15 15 13 13 17 17 15 13 11 9 10 15 15 15 17 16 17
9 7 5 10 17 18 6 2 8 13 9 8 8 7 3 6 10 10 16 15 18 17 18 30 23 19 18 16 15 15 15 14 13 14 14 15 18 16 16 13 9 7 10 13 13 15 16 15 18
8 6 12 12 19 14 9 3 9 15 12 14 9 8 9 8 10 12 15 13 16 16 18 23 23 20 19 17 16 15 14 13 13 14 13 18 17 16 16 10 8 7 8 10 13 13 14 13 16
9 6 10 21 19 13 10 10 11 15 13 13 9 9 7 13 12 11 12 12 15 16 18 19 22 20 19 18 17 16 14 12 14 13 15 17 17 19 17 10 8 8 8 10 12 11 12 13 14
17 12 17 16 18 14 12 12 15 15 13 12 3 10 8 13 13 12 12 12 13 14 14 20 20 21 20 19 18 17 16 14 15 14 17 19 19 18 15 11 8 8 8 7 11 9 10 14 13
15 11 17 13 15 14 8 14 9 15 15 5 6 8 10 16 14 13 12 13 13 13 12 17 19 20 19 19 20 19 17 17 15 14 16 18 18 16 13 10 8 8 7 6 9 9 14 13 11
11 11 17 21 17 10 8 14 5 4 9 10 10 1 7 19 15 14 13 13 14 11 12 13 13 18 18 18 20 19 20 18 15 14 18 19 11 10 13 9 12 9 8 4 8 8 14 12 12
16 16 19 14 10 7 8 12 13 9 14 12 11 7 7 17 17 16 15 14 15 14 14 12 13 14 18 16 17 18 17 17 17 17 20 14 12 11 10 12 12 10 9 7 9 11 15 15 11
16 23 22 7 7 4 6 9 7 14 17 18 20 16 13 15 16 15 14 14 16 16 15 15 15 15 13 14 15 14 12 13 15 21 20 14 12 12 11 11 11 11 9 11 10 11 11 12 14
14 28 19 9 7 6 9 4 10 14 7 5 15 17 16 17 16 15 14 13 14 15 16 15 14 14 14 12 13 15 13 13 13 15 17 13 11 14 12 12 13 12 11 13 10 13 13 10 12
29 20 20 13 4 11 5 11 12 15 14 4 10 11 17 15 16 14 13 12 13 14 14 14 14 14 14 14 12 12 16 15 14 15 17 15 13 11 12 13 13 12 13 13 13 13 10 10 10
15 27 20 13 20 12 10 14 9 12 14 17 13 11 13 14 14 13 15 16 17 16 15 13 13 14 14 14 14 13 12 14 15 15 16 18 15 15 13 11 12 12 13 11 10 11 11 10 10
25 13 21 23 13 13 14 21 21 22 9 17 19 16 15 15 14 16 15 16 17 17 16 14 13 13 14 14 12 10 11 11 15 15 17 18 15 14 14 14 12 13 13 14 13 11 11 10 13
19 19 26 16 24 12 13 26 19 27 22 22 19 16 16 16 16 16 15 15 15 16 17 17 15 15 16 15 14 11 10 11 13 15 16 18 15 12 13 12 14 11 14 13 13 12 12 9 8
22 28 28 25 24 15 22 13 18 4 6 10 13 16 16 14 14 13 13 14 15 17 17 17 17 17 17 16 14 14 13 10 11 12 13 17 17 16 15 12 12 14 12 14 14 12 13 11 9
26 29 27 27 21 26 22 24 6 3 4 8 7 7 9 10 8 6 7 9 11 12 14 15 15 17 17 15 13 11 12 9 10 12 11 15 15 16 14 12 11 14 12 13 13 14 9 13 13
27 31 31 30 12 17 28 19 26 11 8 7 9 4 5 7 10 12 13 14 10 12 13 14 15 17 17 17 17 14 15 9 9 11 12 11 14 16 16 14 14 11 10 12 13 7 14 11 11
34 33 36 20 16 13 15 23 21 20 14 2 3 5 7 10 11 11 13 13 13 15 15 16 17 17 19 17 17 11 17 10 10 11 12 13 14 17 17 17 17 17 15 7 17 12 13 12 13
39 40 32 29 14 13 11 21 18 16 8 5 4 5 7 11 13 14 14 16 13 14 16 17 18 18 19 18 14 12 14 11 14 15 14 15 15 16 18 19 18 18 16 17 17 16 16 16 14
39 35 29 28 19 18 19 22 28 23 13 6 5 8 10 11 12 15 15 16 17 11 14 16 18 18 19 20 18 21 21 18 15 17 15 15 17 18 19 19 20 21 17 18 17 19 17 15 15
39 23 32 30 25 18 22 11 15 25 16 8 7 10 12 13 14 18 19 18 19 17 10 12 15 17 19 20 20 20 20 18 16 17 18 14 15 17 19 19 21 21 20 21 21 20 21 18 19
21 11 20 22 23 25 36 24 18 20 12 8 8 11 12 13 14 18 19 19 19 20 11 7 11 15 17 18 19 21 20 18 17 19 17 17 14 14 17 19 21 23 22 21 22 24 24 22 19
21 24 15 18 20 26 28 23 6 12 11 9 8 11 13 15 17 20 21 22 21 22 20 8 7 12 16 15 18 20 18 18 17 18 18 16 16 15 17 20 19 19 22 22 22 23 23 24 23
33 34 19 28 27 30 14 18 11 15 14 12 11 12 14 16 17 18 19 19 20 21 21 19 5 6 10 15 18 17 16 13 13 15 14 16 16 18 18 19 21 20 22 23 22 21 21 22 23
28 32 35 17 22 29 13 11 10 14 12 11 13 15 17 17 18 18 18 19 20 21 21 20 18 6 10 11 11 11 10 13 12 13 14 13 16 16 18 21 22 23 22 24 22 21 24 23 24
8 14 23 21 21 15 10 15 17 12 8 10 13 17 18 19 19 19 18 19 19 19 19 20 19 17 12 9 10 11 12 12 13 10 14 15 15 15 17 21 24 23 24 24 24 21 22 24 22
13 9 5 7 13 23 13 6 10 10 11 11 13 16 19 20 20 20 19 18 17 18 19 19 20 20 19 16 11 10 10 12 12 13 13 14 15 17 18 20 23 25 25 26 27 25 21 24 24
20 17 8 4 17 3 7 8 9 10 11 12 13 16 18 18 19 20 21 20 20 20 21 20 19 20 19 18 14 7 9 10 11 12 14 13 15 14 16 19 20 20 19 19 20 19 18 20 21
Wind_Direction
216 215 216 194 210 231 239 231 198 196 203 205 209 166 201 31 227 84 130 118 132 150 147 156 149 146 146 149 149 147 143 149 144 141 138 139 134 122 115 110 109 112 107 104 92 103 94 93 92
189 181 200 216 240 221 237 224 200 201 114 161 199 184 209 118 74 116 132 138 144 149 148 159 156 155 150 146 144 144 145 147 148 139 139 149 138 126 118 113 112 116 115 107 103 102 100 97 98
203 205 205 207 232 234 236 170 192 160 153 158 159 242 156 115 127 119 113 138 145 151 153 153 160 159 157 151 147 147 147 149 150 142 151 155 136 129 117 110 117 116 106 110 108 104 95 97 96
177 191 247 233 226 233 260 107 182 161 167 186 152 166 116 18 119 117 129 141 147 153 159 144 159 162 162 156 155 156 154 152 151 150 158 148 136 131 117 111 112 109 104 120 112 102 102 107 95
211 217 229 233 237 228 229 167 186 180 170 178 191 137 136 119 115 128 140 144 148 154 135 150 156 162 161 160 156 160 162 160 160 161 155 141 141 127 111 117 122 122 114 116 122 116 108 105 104
195 235 223 229 228 220 217 195 196 194 171 164 184 149 123 135 144 134 144 146 146 152 144 151 159 162 163 168 164 168 175 173 169 161 151 138 130 115 119 127 141 140 129 128 132 125 120 108 105
231 219 238 238 233 203 213 188 196 192 183 180 207 182 125 158 139 143 148 144 148 148 155 153 171 170 165 169 173 175 181 177 167 156 146 134 126 121 122 138 155 149 142 145 129 130 150 123 115
233 246 249 236 220 230 175 185 200 197 190 128 163 199 186 168 147 148 147 149 148 149 165 158 171 176 177 178 179 181 180 175 173 163 145 133 123 122 126 149 164 149 142 151 129 116 121 122 125
242 234 236 220 222 224 147 189 189 207 193 189 187 282 77 134 154 153 154 151 153 159 173 174 169 180 178 179 183 187 181 176 176 163 152 146 147 150 148 170 150 156 148 148 130 130 110 115 125
205 226 239 248 235 234 182 204 165 180 197 206 198 142 136 151 167 169 171 174 175 177 181 191 176 200 172 189 177 188 188 187 186 183 170 182 146 164 172 139 149 156 154 155 137 137 133 148 139
219 234 234 234 244 241 208 208 194 208 204 210 204 186 167 171 177 179 185 185 189 185 185 191 186 196 178 183 183 193 187 195 190 183 182 182 150 140 153 147 160 163 172 174 167 149 171 184 145
239 227 246 270 193 225 216 217 207 215 199 233 196 193 182 185 187 191 192 197 190 185 186 188 199 195 195 197 182 185 187 194 195 189 186 179 165 164 165 161 169 164 188 177 181 180 196 175 174
221 236 227 219 203 233 244 228 226 221 217 112 147 190 191 196 199 199 202 200 198 193 191 190 191 200 203 201 194 201 183 189 191 184 188 184 178 175 169 169 173 164 191 178 189 185 198 182 172
226 234 240 238 234 231 236 242 232 235 223 204 182 187 193 206 214 215 210 211 210 209 201 193 197 201 207 210 215 206 202 189 185 184 191 188 184 184 177 177 175 172 184 161 200 187 186 184 136
236 243 231 227 219 229 224 252 235 239 234 225 214 217 225 221 223 226 225 224 224 220 217 212 209 205 208 213 205 210 222 207 182 189 188 198 195 186 175 180 173 175 180 163 208 187 183 187 146
218 229 235 210 215 214 191 248 226 232 227 232 224 220 222 227 239 243 243 246 234 228 223 224 219 212 211 208 202 204 208 210 201 191 193 198 186 176 170 180 183 174 176 167 197 184 190 179 167
209 224 225 230 194 196 203 241 228 142 194 227 230 238 231 240 243 244 249 250 237 235 229 228 219 212 207 204 196 203 206 196 202 195 191 191 190 182 181 179 178 180 185 170 188 192 189 176 175
214 221 235 225 191 209 211 228 144 151 199 215 210 209 205 207 220 244 255 230 238 232 226 224 214 212 204 197 185 200 202 188 188 185 194 194 188 179 173 171 172 168 194 177 180 194 172 188 165
228 226 222 228 170 203 226 228 228 174 196 224 223 270 326 303 321 312 307 295 261 247 231 221 213 205 194 190 187 193 198 170 163 173 176 188 183 171 174 173 161 161 186 176 166 165 147 185 172
229 238 231 226 163 200 226 228 230 221 220 306 342 316 321 324 323 320 314 298 261 246 241 226 214 207 199 190 190 188 192 189 180 166 169 176 182 178 179 175 170 174 173 170 172 160 160 184 185
223 224 229 219 175 212 254 247 216 211 188 123 53 12 3 350 342 338 332 323 286 254 243 234 220 210 200 195 187 190 171 175 184 183 179 182 181 179 175 173 172 175 174 177 170 172 181 183 186
227 220 235 232 194 217 191 252 218 181 157 127 59 37 20 9 5 4 350 338 324 283 248 243 228 215 204 187 187 190 185 183 195 191 186 173 176 179 180 178 179 176 181 177 182 174 181 186 189
233 231 218 230 224 225 193 231 234 151 158 132 71 43 27 17 22 9 359 349 350 326 280 247 224 211 199 186 191 195 194 197 193 197 187 176 181 183 184 181 183 188 189 190 187 182 188 189 183
234 220 240 230 222 225 223 208 218 181 168 125 76 43 26 16 17 12 5 358 355 351 323 244 220 207 192 187 196 201 201 198 194 193 194 188 184 187 190 192 191 190 195 196 194 191 192 193 192
207 183 191 207 203 219 211 215 150 112 91 79 59 41 27 19 18 11 7 2 357 356 355 327 223 205 195 179 203 205 209 209 201 194 196 193 193 196 198 195 198 198 197 201 197 197 198 197 199
202 187 196 203 202 213 200 203 123 117 98 75 49 38 30 21 17 13 6 5 1 359 358 2 308 203 207 186 204 206 204 211 204 204 200 197 193 204 209 207 205 205 210 207 202 201 204 204 204
200 208 203 227 227 208 146 107 116 122 92 64 46 32 21 13 10 9 5 4 4 4 1 357 359 334 188 199 196 202 208 201 214 213 217 206 216 196 201 213 211 208 212 212 203 206 203 205 206
290 202 197 225 204 196 159 160 146 145 70 41 25 19 13 8 5 4 5 360 6 4 1 359 0 9 5 191 190 195 200 208 210 220 221 219 221 222 204 206 211 211 209 211 208 209 207 205 206
357 14 310 223 224 192 152 109 26 60 36 22 15 6 4 4 2 358 357 359 1 2 4 3 3 2 4 358 347 192 195 197 203 211 219 223 226 220 219 215 214 213 214 211 208 207 205 205 197
39 14 336 294 183 174 83 112 43 37 28 13 5 1 357 357 1 357 355 357 356 357 358 359 1 1 351 348 338 285 200 204 207 217 223 225 235 229 224 219 215 215 207 192 192 193 191 191 187